IBE2018 LEMD-LEST

Flight info

Callsign IBE2018
Flight time 0h 46m
Altitude 30000
Route ZMR DCT DESAT DCT FORNO
Aircraft A320/M-SDE3FGHIRWY/LB1

Departure

Time 2026-05-04 00:47
Airport Adolfo Suárez Madrid–Barajas Airport (LEMD)

Arrival

Time 2026-05-04 01:33
Airport Santiago-Rosalía de Castro Airport (LEST)
Time Latitude Longitude Altitude Speed Heading
2026-05-04 00:12 40.49189 -3.58964 2022 ft 0 kts 271°
2026-05-04 00:38 40.49189 -3.58951 2022 ft 4 kts 272°
2026-05-04 00:39 40.49186 -3.58916 2027 ft 4 kts 283°
2026-05-04 00:39 40.49177 -3.58887 2031 ft 4 kts 328°
2026-05-04 00:39 40.49167 -3.58881 2033 ft 0 kts
2026-05-04 00:42 40.49189 -3.58880 2028 ft 8 kts
2026-05-04 00:42 40.49231 -3.58854 2027 ft 8 kts 55°
2026-05-04 00:42 40.49240 -3.58742 2028 ft 13 kts 91°
2026-05-04 00:42 40.49240 -3.58628 2028 ft 12 kts 90°
2026-05-04 00:43 40.49241 -3.58519 2018 ft 14 kts 90°
2026-05-04 00:43 40.49241 -3.58344 2011 ft 23 kts 90°
2026-05-04 00:43 40.49241 -3.58108 2005 ft 28 kts 90°
2026-05-04 00:43 40.49244 -3.57834 1995 ft 31 kts 89°
2026-05-04 00:44 40.49247 -3.57642 1988 ft 12 kts 81°
2026-05-04 00:44 40.49262 -3.57583 1987 ft 0 kts 67°
2026-05-04 00:45 40.49264 -3.57577 1986 ft 5 kts 67°
2026-05-04 00:45 40.49294 -3.57475 1984 ft 14 kts 64°
2026-05-04 00:45 40.49373 -3.57452 1983 ft 11 kts 359°
2026-05-04 00:45 40.49399 -3.57452 1983 ft 0 kts
2026-05-04 00:46 40.49401 -3.57452 1983 ft 4 kts
2026-05-04 00:46 40.49676 -3.57452 1985 ft 76 kts 359°
2026-05-04 00:46 40.50414 -3.57460 1992 ft 133 kts
2026-05-04 00:46 40.51492 -3.57468 2001 ft 175 kts 359°
2026-05-04 00:47 40.52726 -3.57396 2577 ft 178 kts
2026-05-04 00:47 40.53989 -3.57349 3061 ft 191 kts
2026-05-04 00:47 40.55420 -3.57292 3177 ft 221 kts 354°
2026-05-04 00:47 40.56849 -3.57899 4061 ft 219 kts 327°
2026-05-04 00:48 40.57832 -3.59364 4866 ft 219 kts 290°
2026-05-04 00:48 40.58271 -3.61311 5573 ft 224 kts 292°
2026-05-04 00:48 40.59159 -3.63011 6311 ft 230 kts 314°
2026-05-04 00:48 40.60366 -3.64414 7020 ft 234 kts 320°
2026-05-04 00:49 40.61668 -3.65720 7769 ft 237 kts 321°
2026-05-04 00:49 40.63039 -3.66950 8505 ft 242 kts 332°
2026-05-04 00:49 40.64668 -3.67610 9221 ft 252 kts 349°
2026-05-04 00:49 40.66516 -3.67579 9546 ft 279 kts
2026-05-04 00:50 40.68522 -3.67261 9950 ft 298 kts
2026-05-04 00:50 40.70645 -3.66940 10379 ft 316 kts
2026-05-04 00:50 40.72914 -3.66609 10612 ft 340 kts
2026-05-04 00:50 40.75310 -3.66565 10786 ft 358 kts 348°
2026-05-04 00:51 40.77670 -3.67669 11199 ft 363 kts 325°
2026-05-04 00:51 40.79570 -3.69818 11798 ft 360 kts 304°
2026-05-04 00:51 40.80889 -3.72605 12498 ft 359 kts 295°
2026-05-04 00:51 40.82108 -3.75493 13238 ft 362 kts 294°
2026-05-04 00:52 40.83321 -3.78414 13938 ft 365 kts 294°
2026-05-04 00:52 40.84545 -3.81368 14590 ft 368 kts 294°
2026-05-04 00:52 40.85781 -3.84354 15253 ft 371 kts 295°
2026-05-04 00:52 40.87029 -3.87363 15903 ft 373 kts 295°
2026-05-04 00:53 40.88288 -3.90387 16519 ft 376 kts 295°
2026-05-04 00:53 40.89553 -3.93424 17097 ft 379 kts 295°
2026-05-04 00:53 40.90812 -3.96443 17667 ft 382 kts 295°
2026-05-04 00:53 40.92114 -3.99574 18248 ft 385 kts 294°
2026-05-04 00:54 40.93390 -4.02647 18775 ft 388 kts 294°
2026-05-04 00:54 40.94694 -4.05788 19281 ft 390 kts 294°
2026-05-04 00:54 40.96004 -4.08944 19784 ft 393 kts 294°
2026-05-04 00:54 40.97324 -4.12126 20266 ft 395 kts 294°
2026-05-04 00:55 40.98646 -4.15322 20759 ft 397 kts 294°
2026-05-04 00:55 40.99971 -4.18547 21235 ft 400 kts 294°
2026-05-04 00:55 41.01305 -4.21792 21705 ft 402 kts 294°
2026-05-04 00:55 41.02612 -4.25066 22169 ft 404 kts 292°
2026-05-04 00:56 41.03878 -4.28399 22631 ft 405 kts 291°
2026-05-04 00:56 41.05115 -4.31765 23091 ft 408 kts 291°
2026-05-04 00:56 41.06347 -4.35156 23522 ft 410 kts 290°
2026-05-04 00:56 41.07585 -4.38572 23874 ft 413 kts 290°
2026-05-04 00:57 41.08839 -4.42010 24230 ft 415 kts 291°
2026-05-04 00:57 41.10104 -4.45457 24605 ft 416 kts 291°
2026-05-04 00:57 41.11379 -4.48914 24976 ft 418 kts 291°
2026-05-04 00:57 41.12660 -4.52384 25342 ft 419 kts 290°
2026-05-04 00:58 41.13944 -4.55868 25706 ft 421 kts 290°
2026-05-04 00:58 41.15233 -4.59365 26093 ft 422 kts 290°
2026-05-04 00:58 41.16509 -4.62826 26453 ft 423 kts 290°
2026-05-04 00:58 41.17817 -4.66387 26784 ft 425 kts 290°
2026-05-04 00:59 41.19114 -4.69919 27111 ft 426 kts 290°
2026-05-04 00:59 41.20412 -4.73457 27430 ft 427 kts 290°
2026-05-04 00:59 41.21715 -4.77018 27745 ft 429 kts 290°
2026-05-04 00:59 41.23018 -4.80590 28045 ft 430 kts 290°
2026-05-04 01:00 41.24325 -4.84179 28362 ft 432 kts 289°
2026-05-04 01:00 41.25615 -4.87727 28703 ft 432 kts 289°
2026-05-04 01:00 41.26924 -4.91330 29106 ft 432 kts 289°
2026-05-04 01:00 41.28228 -4.94918 29528 ft 430 kts 289°
2026-05-04 01:01 41.29529 -4.98484 29937 ft 430 kts 289°
2026-05-04 01:01 41.32127 -5.05629 30017 ft 428 kts 289°
2026-05-04 01:02 41.34702 -5.12749 30016 ft 427 kts 289°
2026-05-04 01:02 41.37274 -5.19888 30019 ft 427 kts 289°
2026-05-04 01:03 41.39840 -5.27021 30018 ft 427 kts 289°
2026-05-04 01:03 41.42391 -5.34153 30045 ft 427 kts 289°
2026-05-04 01:04 41.44952 -5.41296 30047 ft 427 kts 289°
2026-05-04 01:04 41.47510 -5.48449 30011 ft 426 kts 289°
2026-05-04 01:05 41.50055 -5.55600 30000 ft 426 kts 289°
2026-05-04 01:05 41.52580 -5.62708 29997 ft 428 kts 290°
2026-05-04 01:06 41.55634 -5.69597 29995 ft 435 kts 298°
2026-05-04 01:06 41.59206 -5.76157 30013 ft 437 kts 300°
2026-05-04 01:07 41.62824 -5.82675 30027 ft 436 kts 299°
2026-05-04 01:07 41.66326 -5.89294 30005 ft 436 kts 298°
2026-05-04 01:08 41.69185 -5.94848 29997 ft 436 kts 298°
2026-05-04 01:08 41.72644 -6.01583 30001 ft 436 kts 298°
2026-05-04 01:09 41.76104 -6.08266 30003 ft 437 kts 298°
2026-05-04 01:09 41.79570 -6.14963 30030 ft 437 kts 298°
2026-05-04 01:10 41.83021 -6.21655 30045 ft 437 kts 298°
2026-05-04 01:10 41.86460 -6.28325 30022 ft 437 kts 298°
2026-05-04 01:11 41.89934 -6.35093 30018 ft 438 kts 298°
2026-05-04 01:11 41.93381 -6.41833 30020 ft 438 kts 298°
2026-05-04 01:12 41.96810 -6.48537 30045 ft 438 kts 298°
2026-05-04 01:12 42.00254 -6.55283 30043 ft 438 kts 298°
2026-05-04 01:13 42.03696 -6.62057 30046 ft 438 kts 298°
2026-05-04 01:13 42.07128 -6.68829 29878 ft 439 kts 298°
2026-05-04 01:13 42.08846 -6.72223 29592 ft 439 kts 298°
2026-05-04 01:14 42.10567 -6.75628 29309 ft 440 kts 298°
2026-05-04 01:14 42.12293 -6.79039 29025 ft 441 kts 298°
2026-05-04 01:14 42.14024 -6.82463 28745 ft 442 kts 298°
2026-05-04 01:14 42.15754 -6.85886 28495 ft 442 kts 299°
2026-05-04 01:15 42.17489 -6.89328 28217 ft 444 kts 299°
2026-05-04 01:15 42.19223 -6.92772 27938 ft 444 kts 299°
2026-05-04 01:15 42.20961 -6.96227 27690 ft 445 kts 300°
2026-05-04 01:15 42.22697 -6.99687 27298 ft 445 kts 300°
2026-05-04 01:16 42.24436 -7.03159 26114 ft 449 kts 300°
2026-05-04 01:16 42.26189 -7.06664 25174 ft 449 kts 300°
2026-05-04 01:16 42.27926 -7.10131 24431 ft 444 kts 300°
2026-05-04 01:16 42.29646 -7.13562 23681 ft 440 kts 301°
2026-05-04 01:17 42.31352 -7.16973 22871 ft 436 kts 301°
2026-05-04 01:17 42.33035 -7.20349 22184 ft 430 kts 301°
2026-05-04 01:17 42.34697 -7.23690 21514 ft 425 kts 301°
2026-05-04 01:17 42.36335 -7.26992 20837 ft 420 kts 301°
2026-05-04 01:18 42.37954 -7.30248 20208 ft 415 kts 301°
2026-05-04 01:18 42.39556 -7.33468 19588 ft 411 kts 301°
2026-05-04 01:18 42.41143 -7.36662 18986 ft 407 kts 301°
2026-05-04 01:18 42.42708 -7.39822 18403 ft 403 kts 301°
2026-05-04 01:19 42.44237 -7.42915 17802 ft 398 kts 301°
2026-05-04 01:19 42.45770 -7.46059 17272 ft 390 kts 298°
2026-05-04 01:19 42.46943 -7.49271 16762 ft 381 kts 289°
2026-05-04 01:19 42.47723 -7.52705 16247 ft 374 kts 282°
2026-05-04 01:20 42.48379 -7.56052 15755 ft 370 kts 283°
2026-05-04 01:20 42.49041 -7.59402 15264 ft 366 kts 283°
2026-05-04 01:20 42.49696 -7.62721 14752 ft 363 kts 283°
2026-05-04 01:20 42.50344 -7.66007 14246 ft 360 kts 283°
2026-05-04 01:21 42.50993 -7.69275 13694 ft 358 kts 283°
2026-05-04 01:21 42.51638 -7.72524 13135 ft 355 kts 283°
2026-05-04 01:21 42.52277 -7.75754 12557 ft 353 kts 283°
2026-05-04 01:21 42.52908 -7.78961 11988 ft 351 kts 283°
2026-05-04 01:22 42.53529 -7.82147 11400 ft 349 kts 283°
2026-05-04 01:22 42.54144 -7.85305 11038 ft 338 kts 284°
2026-05-04 01:22 42.54723 -7.88257 10896 ft 310 kts 284°
2026-05-04 01:22 42.55257 -7.90979 10711 ft 289 kts 284°
2026-05-04 01:23 42.55765 -7.93577 10354 ft 282 kts 284°
2026-05-04 01:23 42.56261 -7.96137 10110 ft 279 kts 284°
2026-05-04 01:23 42.56752 -7.98679 9929 ft 278 kts 284°
2026-05-04 01:23 42.57240 -8.01214 9796 ft 278 kts 284°
2026-05-04 01:24 42.57731 -8.03756 9658 ft 278 kts 284°
2026-05-04 01:24 42.58220 -8.06288 9524 ft 277 kts 284°
2026-05-04 01:24 42.58709 -8.08812 9389 ft 273 kts 284°
2026-05-04 01:24 42.59184 -8.11258 9253 ft 263 kts 284°
2026-05-04 01:25 42.59640 -8.13610 9121 ft 253 kts 284°
2026-05-04 01:25 42.60076 -8.15867 9056 ft 241 kts 284°
2026-05-04 01:25 42.60498 -8.18073 8663 ft 244 kts 284°
2026-05-04 01:25 42.60927 -8.20318 8254 ft 245 kts 284°
2026-05-04 01:26 42.61348 -8.22519 7909 ft 237 kts 284°
2026-05-04 01:26 42.61756 -8.24649 7596 ft 229 kts 284°
2026-05-04 01:26 42.62150 -8.26706 7289 ft 222 kts 284°
2026-05-04 01:26 42.62533 -8.28703 6990 ft 216 kts 285°
2026-05-04 01:27 42.62986 -8.30614 6694 ft 210 kts 297°
2026-05-04 01:27 42.63828 -8.32163 6435 ft 199 kts 316°
2026-05-04 01:27 42.64949 -8.33187 6095 ft 192 kts 335°
2026-05-04 01:27 42.66186 -8.33683 5805 ft 185 kts 345°
2026-05-04 01:28 42.67418 -8.34094 5524 ft 180 kts 345°
2026-05-04 01:28 42.68620 -8.34495 5274 ft 175 kts 345°
2026-05-04 01:28 42.69789 -8.34885 5032 ft 171 kts 345°
2026-05-04 01:28 42.70932 -8.35266 4829 ft 167 kts 345°
2026-05-04 01:29 42.72047 -8.35637 4613 ft 163 kts 345°
2026-05-04 01:29 42.73135 -8.35999 4396 ft 160 kts 345°
2026-05-04 01:29 42.74208 -8.36357 4179 ft 157 kts 345°
2026-05-04 01:29 42.75262 -8.36709 3966 ft 154 kts 345°
2026-05-04 01:30 42.76296 -8.37054 3759 ft 152 kts 345°
2026-05-04 01:30 42.77318 -8.37395 3551 ft 150 kts 345°
2026-05-04 01:30 42.78328 -8.37732 3353 ft 149 kts 345°
2026-05-04 01:30 42.79318 -8.38063 3169 ft 142 kts 346°
2026-05-04 01:31 42.80274 -8.38382 2963 ft 141 kts 346°
2026-05-04 01:31 42.81224 -8.38699 2768 ft 140 kts 346°
2026-05-04 01:31 42.82171 -8.39016 2572 ft 140 kts 346°
2026-05-04 01:31 42.83121 -8.39333 2384 ft 140 kts 346°
2026-05-04 01:32 42.84072 -8.39652 2187 ft 140 kts 346°
2026-05-04 01:32 42.85020 -8.39969 1997 ft 140 kts 346°
2026-05-04 01:32 42.85967 -8.40286 1801 ft 140 kts 346°
2026-05-04 01:32 42.86914 -8.40603 1603 ft 140 kts 346°
2026-05-04 01:33 42.87859 -8.40919 1409 ft 140 kts 346°
2026-05-04 01:33 42.88794 -8.41232 1219 ft 137 kts 346°
2026-05-04 01:33 42.89596 -8.41502 1192 ft 83 kts 346°
2026-05-04 01:33 42.89864 -8.41592 1192 ft 1 kts 346°
2026-05-04 01:34 42.89933 -8.41615 1192 ft 15 kts 346°
2026-05-04 01:34 42.90010 -8.41687 1192 ft 14 kts 288°
2026-05-04 01:34 42.90005 -8.41763 1192 ft 2 kts 258°
2026-05-04 01:34 42.90004 -8.41768 1192 ft 0 kts 258°
2026-05-04 01:35 42.90003 -8.41779 1193 ft 5 kts 258°
2026-05-04 01:35 42.89997 -8.41810 1194 ft 1 kts 254°
2026-05-04 01:35 42.89967 -8.41847 1197 ft 7 kts 198°
2026-05-04 01:35 42.89928 -8.41843 1197 ft 6 kts 168°
2026-05-04 01:36 42.89872 -8.41826 1197 ft 10 kts 167°
2026-05-04 01:36 42.89791 -8.41802 1197 ft 13 kts 167°
2026-05-04 01:36 42.89709 -8.41777 1197 ft 12 kts 167°
2026-05-04 01:36 42.89636 -8.41754 1198 ft 10 kts 167°
2026-05-04 01:37 42.89576 -8.41735 1198 ft 8 kts 167°
2026-05-04 01:37 42.89527 -8.41720 1198 ft 6 kts 167°
2026-05-04 01:37 42.89483 -8.41733 1199 ft 5 kts 218°
2026-05-04 01:37 42.89468 -8.41748 1200 ft 2 kts 215°
2026-05-04 01:38 42.89452 -8.41763 1201 ft 1 kts 213°
2026-05-04 01:38 42.89421 -8.41778 1203 ft 4 kts 205°
2026-05-04 01:38 42.89407 -8.41791 1204 ft 4 kts 217°
2026-05-04 01:38 42.89378 -8.41833 1206 ft 4 kts 230°
2026-05-04 01:39 42.89365 -8.41855 1206 ft 2 kts 232°
2026-05-04 01:39 42.89356 -8.41870 1206 ft 2 kts 230°
2026-05-04 01:39 42.89355 -8.41873 1206 ft 0 kts 230°